Weather in Olkhi

Russia / Tambov Oblast     53°17′19″N   41°12′26″E
temp.,
°C
wind,
m/s
gust,
m/s
humid.,
%
clouds,
%
prec.,
mm/h
press.,
hPa
HPBL,
m
20 june, sun
sun2000:00+17sw22860 0.0 102511
03:00+16sw00850 0.0 102511
06:00+18se11800 0.0 102459
09:00+22se22680 0.0 1024462
12:00+25se23520 0.0 1024955
15:00+27sse13440 0.0 10221370
18:00+26s236511 0.0 1021142
21:00+21sse2274100 0.0 102211
21 june, mon
mon2100:00+19ese1175100 0.0 102211
03:00+18e2284100 0.0 102216
06:00+19ese2586100 0.0 1022123
09:00+24se3469100 0.0 1022473
12:00+27sse2352100 0.0 10221030
15:00+29se2347100 0.0 10211212
18:00+27ese2367100 0.0 102069
21:00+22se2376100 0.0 102220
22 june, tue
tue2200:00+19ese33800 0.0 102224
03:00+18ese23840 0.0 102222
06:00+20ese24840 0.0 1022111
09:00+25ese34660 0.0 1022406
12:00+29ese23480 0.0 10221143
15:00+30ese124162 0.0 10211753
18:00+28ese236395 0.0 1021102
21:00+22ese226834 0.0 102113
23 june, wed
wed2300:00+20e22720 0.0 102211
03:00+19ene337724 0.0 102225
06:00+21e248360 0.0 1022107
09:00+26ene456738 0.0 1022414
12:00+30e335021 0.0 10211309
15:00+31e33485 0.0 10211612
18:00+30ese236587 0.0 1020157
21:00+24ese227528 0.1 102111
24 june, thu
thu2400:00+22e22825 0.0 102117
03:00+21e338458 0.0 102128
06:00+22e248373 0.0 102198
09:00+27ese23666 0.0 1020405
12:00+30s115484 0.0 10201282
15:00+31wsw2250100 0.0 10191470
18:00+18ese91584100 1.3 1020236
21:00+22ssw115472 1.4 101811